Location: Most
(50.5330°N, 13.6500°E)
Time: 07:23:34
(UTC+01:00)

ISS - Pass Details

Date: 03 October 2023
Orbit: 415 x 417 km, 51.6° (Epoch: 05 December)

Event Time Altitude Azimuth Distance (km) Brightness Sun altitude
Rises 19:13:05 0° 285° (WNW) 2,363 2.0 -6.1°
Reaches altitude 10° 19:15:27 10° 270° (W) 1,494 0.9 -6.5°
Maximum altitude 19:18:11 23° 216° (SW) 922 -1.6 -6.9°
Drops below altitude 10° 19:20:54 10° 161° (SSE) 1,484 -1.2 -7.3°
Sets 19:23:14 0° 146° (SE) 2,343 -0.3 -7.7°
